RAPIDEYE 1

Last updated on Mon Sep 14 2020 05:43:38 GMT+0000 (Coordinated Universal Time)

1 33314U 08040C 20257.79304829 .00000410 00000-0 42613-4 0 9999 2 33314 97.7049 321.3729 0028107 83.7276 276.7144 14.94845693650948
UTC large
Height (km)
Speed (km/s)
/
Latitude / Longitude
Inclination (degrees)
Orbital Period (minutes)
Azimuth
Elevation
Range (km)
Doppler Factor

Next 0 passes for location: London (51.5072 / 0.1276)

Sorry there are no passes over London.